Regional Weather Roundup
Issued by NWS Cleveland, OH

Home | Current Version | Previous Version | Graphics & Text | Print | Product List | Glossary On
Versions: 1 2 3 4 5 6 7 8 9 10 11 12 13 14 15 16 17 18 19 20 21 22 23 24 25 26 27 28 29 30 31 32 33 34 35 36 37 38 39 40 41 42 43 44 45 46 47 48 49 50
000
ASUS41 KCLE 191910
RWRCLE
OHIO REGIONAL WEATHER ROUNDUP
NATIONAL WEATHER SERVICE WILMINGTON, OH
300 PM EDT SAT AUG 19 2017

NOTE: "FAIR" INDICATES FEW OR NO CLOUDS BELOW 12,000 FEET WITH NO
SIGNIFICANT WEATHER AND/OR OBSTRUCTIONS TO VISIBILITY.

OHZ001>008-015>018-024>027-034-035-043-044-192000-
   NORTHWEST OHIO

CITY           SKY/WX    TMP DP  RH WIND       PRES   REMARKS
DEFIANCE       FAIR      79  61  53 NW6       29.95S
FINDLAY        FAIR      83  58  42 W13       29.93F
TOLEDO EXPRESS FAIR      80  60  50 NW13      29.93S
TOLEDO EXEC    FAIR      81  60  48 NW7       29.93S
LIMA           FAIR      80  60  50 W8        29.96R
$$

OHZ009>014-019>023-028>033-038-089-192000-
   NORTHEAST OHIO

CITY           SKY/WX    TMP DP  RH WIND       PRES   REMARKS
CLE-HOPKINS    PTSUNNY   81  61  50 W13       29.94S
CLE-LAKEFRONT  FAIR      76  65  68 W9        29.91F
CUY CO. ARPT   PTSUNNY   75  64  69 NW13      29.93F
LORAIN-ELYRIA  FAIR      78  61  55 NW8       29.94S
ASHTABULA      FAIR      74  66  76 NW10      29.93S
AKRON-CANTON   FAIR      83  62  49 NW15      29.92S
WOOSTER        FAIR      76  63  64 NW10G18   29.94S
MANSFIELD      FAIR      80  64  58 NW10G20   29.95S
YOUNGSTOWN     PTSUNNY   77  60  55 W10G21    29.92S
$$

OHZ042-051>053-060>062-070>072-077>081-192000-
  SOUTHWEST OHIO

CITY           SKY/WX    TMP DP  RH WIND       PRES   REMARKS
CINC-COVINGTON PTSUNNY   86  68  54 W12       29.95F
CINC-LUNKEN    PTSUNNY   84  68  58 SW7       29.94F
HAMILTON       FAIR      85  71  63 VRB5      29.95F HX  90
DAYTON         FAIR      84  64  50 W12G17    29.96F
WRIGHT-PAT AFB MOSUNNY   86  63  46 W10       29.94F
DAYTON GENERAL FAIR      83  63  50 SW10      29.95F
WILMINGTON     FAIR      83  67  58 SW12      29.96F
$$

OHZ036-037-039>041-045>050-054>059-063>069-073>076-082>088-192000-
  CENTRAL AND SOUTHEAST OHIO

CITY           SKY/WX    TMP DP  RH WIND       PRES   REMARKS
COLUMBUS       FAIR      84  66  54 SW16G23   29.92F
OSU AIRPORT    FAIR      83  70  64 W15       29.93F
BOLTON FIELD   MOSUNNY   82  66  57 SW15      29.96S
RICKENBACK AFB FAIR      84  66  54 SW12      29.93F
NEWARK         FAIR      83  64  52 SW9G22    29.92F THUNDER
MARION         FAIR      81  61  50 NW13      29.94F
LANCASTER      FAIR      85  65  51 SW9       29.95F
ZANESVILLE     FAIR      85  63  47 SW12G21   29.93F
NEW PHILLY       N/A     69  65  86 VRB3      29.92F THUNDER
$$




USA.gov is the U.S. government's official web portal to all federal, state and local government web resources and services.